[[{"header":{"parameterUnit":"m.s-1","parameterCategory":1,"la1":30.2991,"la2":30.254,"lo1":-89.0895,"lo2":-89.0444,"dx":0.0017,"dy":0.0017,"nx":28,"ny":28,"refTime":"2023-01-02T15:00:00:Z","depth":0,"parameterNumber":2,"parameterNumberName":"U-component_of_WINDS"},"data":[0,0,0,0,0,0,0,0,0,0,0,0,0,0,0,0,0,0,0,0,0,0,0,0,0,0,0,0,0,0,0,0,0,0,0,0,0,0,0,0,0,0,0,0,0,0,0,0,0,0,0,0,0,0,0,0,0,0,-3.6977,-3.6977,0,-3.7026,-3.7027,-3.7027,-3.7007,-3.7006,-3.7005,-3.7004,-3.705,-3.7053,-3.7055,0,0,0,0,0,0,0,0,0,0,0,0,0,-3.686,-3.6862,-3.6977,-3.6977,-3.6978,-3.7026,-3.7027,-3.7027,-3.7007,-3.7006,-3.7005,-3.7003,-3.705,-3.7052,-3.7055,0,0,0,0,0,0,0,0,0,0,0,0,0,-3.691,-3.6863,-3.6976,-3.6974,-3.6974,-3.7026,-3.7027,-3.7028,-3.7008,-3.7006,-3.7004,-3.7003,-3.7049,-3.7052,-3.7056,-3.7112,0,0,-3.7066,-3.7068,0,0,0,0,0,0,0,0,-3.6907,-3.6914,-3.6974,-3.6974,-3.6975,-3.7009,-3.7003,-3.7056,-3.7008,-3.6995,-3.7004,-3.7002,-3.7038,-3.7042,-3.7055,-3.7114,-3.7116,-3.7067,-3.7069,-3.707,-3.7071,0,0,0,0,0,0,0,-3.6904,-3.6912,-3.6996,-3.6974,-3.6975,-3.6969,-3.6974,-3.7013,-3.7025,-3.6996,-3.6995,-3.7001,-3.7038,-3.7052,-3.7056,-3.7117,-3.7066,-3.707,-3.7072,-3.7073,-3.7222,-3.7224,0,0,0,0,0,0,-3.6901,-3.6909,-3.6994,-3.6998,-3.6936,-3.6972,-3.6978,-3.6999,-3.7025,-3.7027,-3.7002,-3.7,-3.7047,-3.7052,-3.7057,-3.7123,-3.707,-3.7073,-3.7075,-3.722,-3.7222,-3.7224,0,0,0,0,0,0,-3.6898,-3.6909,-3.6992,-3.6953,-3.6963,-3.6976,-3.7,-3.7001,-3.7015,-3.703,-3.7031,-3.7015,-3.7045,-3.7053,-3.7098,-3.7125,-3.7075,-3.7078,-3.7218,-3.7221,-3.7223,-3.7256,0,0,0,0,0,0,-3.6895,-3.6908,-3.6931,-3.6954,-3.6966,-3.7034,-3.7002,-3.7004,-3.7022,-3.7019,-3.7042,-3.7044,-3.7045,-3.7093,-3.7102,-3.7128,-3.7081,-3.7215,-3.7219,-3.7222,-3.7253,-3.726,-3.7266,0,0,0,0,0,-3.6891,-3.6937,-3.6932,-3.6942,-3.6994,-3.7035,-3.7042,-3.7043,-3.7024,-3.7046,-3.7055,-3.7043,-3.7121,-3.7098,-3.7107,-3.7136,-3.7214,-3.7218,-3.7222,-3.725,-3.7258,-3.7266,0,0,0,0,0,0,-3.6916,-3.694,-3.6935,-3.699,-3.7011,-3.7032,-3.706,-3.7052,-3.7078,-3.7074,-3.7073,-3.7078,-3.7125,-3.7135,-3.7109,-3.719,-3.7164,-3.717,-3.7182,-3.719,-3.7197,-3.7192,-3.7084,0,0,0,0,0,-3.6928,-3.6961,-3.698,-3.7027,-3.7038,-3.7047,-3.7065,-3.7064,-3.7085,-3.7094,-3.7106,-3.7126,-3.7154,-3.7173,-3.72,-3.7255,-3.7258,-3.7278,-3.7285,-3.729,-3.7295,-3.7322,-3.7331,-3.7238,-3.7238,-3.7238,0,0,-3.6953,-3.697,-3.6991,-3.7032,-3.7048,-3.7081,-3.7055,-3.709,-3.7113,-3.7098,-3.7142,-3.7152,-3.7174,-3.7223,-3.7246,-3.7233,-3.7322,-3.7296,-3.73,-3.7302,-3.7328,-3.7337,-3.7344,-3.7241,-3.724,-3.724,0,0,-3.7014,-3.7032,-3.7072,-3.7089,-3.7114,-3.712,-3.7129,-3.7152,-3.7158,-3.7202,-3.7191,-3.7218,-3.7268,-3.7283,-3.7297,-3.7364,-3.7353,-3.7373,-3.7406,-3.7433,-3.744,-3.7447,-3.7469,-3.7477,-3.7378,-3.7378,-3.7378,0,-3.7041,-3.7091,-3.7093,-3.713,-3.7147,-3.7137,-3.7176,-3.7192,-3.7224,-3.7235,-3.7221,-3.7283,-3.7297,-3.7349,-3.7365,-3.7378,-3.7387,-3.737,-3.7439,-3.7446,-3.7452,-3.7473,-3.7481,-3.738,-3.738,-3.738,-3.738,0,-3.7122,-3.7157,-3.7186,-3.7218,-3.7239,-3.7277,-3.7283,-3.7304,-3.7301,-3.7308,-3.7352,-3.7368,-3.7398,-3.7411,-3.7408,-3.7462,-3.7453,-3.744,-3.7413,-3.7463,-3.7482,-3.749,-3.7383,-3.7383,-3.7382,-3.7381,0,0,-3.72,-3.7233,-3.7244,-3.7257,-3.7284,-3.731,-3.7346,-3.7376,-3.7393,-3.7415,-3.7444,-3.7487,-3.7474,-3.749,-3.7489,-3.7513,-3.7562,-3.7496,-3.7496,-3.7506,-3.762,-3.7629,-3.7639,-3.7556,-3.7557,-3.7559,-3.7618,0,-3.7263,-3.7328,-3.733,-3.7389,-3.742,-3.741,-3.7441,-3.7459,-3.7467,-3.7492,-3.75,-3.7529,-3.7511,-3.752,-3.7543,-3.7551,-3.7585,-3.7547,-3.7581,-3.7582,-3.7574,-3.7649,-3.7659,-3.7714,-3.7626,-3.7627,-3.7628,0,-3.7344,-3.7369,-3.7432,-3.7452,-3.7465,-3.7494,-3.752,-3.7546,-3.7566,-3.7569,-3.7587,-3.7583,-3.7618,-3.7591,-3.7639,-3.7613,-3.7627,-3.7633,-3.7635,-3.7637,-3.7607,-3.7651,-3.7732,-3.774,-3.764,-3.7639,-3.7638,0,-3.7392,-3.7442,-3.7485,-3.7498,-3.7523,-3.7543,-3.7555,-3.7573,-3.7591,-3.7614,-3.7625,-3.7651,-3.7666,-3.7686,-3.7687,-3.7668,-3.7735,-3.7709,-3.7736,-3.7736,-3.775,-3.7748,-3.7832,-3.7762,-3.7762,-3.7761,-3.7761,0,-3.7461,-3.7498,-3.7507,-3.7534,-3.7575,-3.7577,-3.7617,-3.7627,-3.7643,-3.767,-3.7663,-3.7688,-3.769,-3.7715,-3.7716,-3.7754,-3.7761,-3.7763,-3.7763,-3.7763,-3.7762,-3.7771,-3.7766,-3.7764,-3.7763,-3.7763,-3.7762,0,-3.7521,-3.7529,-3.7575,-3.7596,-3.7602,-3.7631,-3.7648,-3.7672,-3.7678,-3.7712,-3.772,-3.7729,-3.7758,-3.7763,-3.7797,-3.7798,-3.7842,-3.7839,-3.7836,-3.7835,-3.7862,-3.7858,-3.7952,-3.7964,-3.7887,-3.7888,-3.7889,0,-3.7564,-3.7592,-3.7616,-3.7634,-3.7647,-3.7676,-3.7693,-3.7696,-3.7714,-3.7739,-3.7759,-3.7788,-3.7811,-3.7857,-3.7866,-3.7892,-3.7888,-3.7919,-3.7891,-3.789,-3.7886,-3.7883,-3.7885,-3.7923,-3.7924,-3.7925,-3.7926,0,-3.7637,-3.7639,-3.7666,-3.7694,-3.7715,-3.7737,-3.7757,-3.7772,-3.7776,-3.7797,-3.7827,-3.7845,-3.788,-3.7907,-3.7932,-3.7942,-3.7934,-3.7934,-3.7942,-3.7941,-3.7937,-3.7938,-3.7848,-3.7932,-3.7931,-3.7931,-3.793,-3.793,-3.7689,-3.7713,-3.7734,-3.7763,-3.7778,-3.7797,-3.7821,-3.783,-3.7855,-3.7884,-3.7884,-3.7916,-3.7934,-3.7967,-3.7979,-3.8003,-3.7992,-3.8004,-3.8006,-3.8009,-3.801,-3.7935,-3.8008,-3.8007,-3.8007,-3.8007,-3.8007,0,-3.7761,-3.7773,-3.78,-3.7829,-3.7851,-3.7843,-3.7865,-3.7884,-3.7913,-3.793,-3.7953,-3.7986,-3.8013,-3.8024,-3.8049,-3.8067,-3.8063,-3.8073,-3.8071,-3.8073,-3.8019,-3.8009,-3.8075,-3.8075,-3.8075,-3.8075,-3.8075,-3.8075,-3.7801,-3.7841,-3.7845,-3.7893,-3.7904,-3.7937,-3.7949,-3.7966,-3.798,-3.8018,-3.804,-3.8048,-3.8062,-3.8089,-3.8112,-3.8114,-3.8123,-3.8134,-3.8135,-3.8084,-3.8077,-3.807,-3.8061,-3.8137,-3.8137,-3.8186,-3.8187,-3.8187]},{"header":{"parameterUnit":"m.s-1","parameterCategory":1,"la1":30.2991,"la2":30.254,"lo1":-89.0895,"lo2":-89.0444,"dx":0.0017,"dy":0.0017,"nx":28,"ny":28,"refTime":"2023-01-02T15:00:00:Z","depth":0,"parameterNumber":3,"parameterNumberName":"V-component_of_WINDS"},"data":[0,0,0,0,0,0,0,0,0,0,0,0,0,0,0,0,0,0,0,0,0,0,0,0,0,0,0,0,0,0,0,0,0,0,0,0,0,0,0,0,0,0,0,0,0,0,0,0,0,0,0,0,0,0,0,0,0,0,4.5623,4.5625,0,4.5835,4.5838,4.584,4.5909,4.5908,4.5907,4.5906,4.6117,4.6123,4.6129,0,0,0,0,0,0,0,0,0,0,0,0,0,4.5272,4.5278,4.5623,4.5626,4.5628,4.5835,4.5838,4.5841,4.5909,4.5908,4.5907,4.5905,4.6114,4.6122,4.613,0,0,0,0,0,0,0,0,0,0,0,0,0,4.5448,4.528,4.5622,4.5687,4.5695,4.5834,4.5838,4.5841,4.5909,4.5908,4.5906,4.5905,4.6112,4.6121,4.6131,4.6219,0,0,4.6161,4.6165,0,0,0,0,0,0,0,0,4.5438,4.5461,4.5675,4.5683,4.5692,4.5844,4.5791,4.5968,4.5909,4.5828,4.5906,4.5904,4.6027,4.6043,4.6086,4.6229,4.6238,4.6161,4.6167,4.6171,4.6174,0,0,0,0,0,0,0,4.5426,4.5452,4.5707,4.5678,4.5689,4.5704,4.5728,4.5825,4.5932,4.5835,4.584,4.5865,4.6031,4.6076,4.6091,4.6241,4.6161,4.617,4.6176,4.618,4.6469,4.6471,0,0,0,0,0,0,4.5403,4.5442,4.57,4.5713,4.5559,4.5712,4.5738,4.5797,4.5931,4.5951,4.5866,4.5867,4.606,4.608,4.6099,4.6214,4.6171,4.6181,4.6186,4.6467,4.647,4.6472,0,0,0,0,0,0,4.5396,4.5426,4.5691,4.5579,4.5614,4.5719,4.5785,4.5802,4.5847,4.5955,4.5974,4.5893,4.606,4.6085,4.619,4.6222,4.6185,4.6194,4.6465,4.6468,4.6471,4.6443,0,0,0,0,0,0,4.5385,4.5423,4.5458,4.5579,4.562,4.578,4.5787,4.5807,4.5865,4.5869,4.5985,4.6003,4.6061,4.6175,4.6199,4.6235,4.6201,4.6463,4.6467,4.647,4.6441,4.6444,4.6447,0,0,0,0,0,4.5373,4.544,4.546,4.549,4.5667,4.5782,4.5805,4.5872,4.5867,4.5903,4.5973,4.6,4.6214,4.6185,4.6213,4.6252,4.6461,4.6466,4.647,4.644,4.6443,4.6446,0,0,0,0,0,0,4.5317,4.5457,4.548,4.5589,4.5673,4.5793,4.5841,4.5873,4.5959,4.5958,4.6036,4.6061,4.6161,4.6216,4.6181,4.6346,4.6339,4.6349,4.6306,4.6311,4.6313,4.6299,4.6209,0,0,0,0,0,4.5317,4.5401,4.5518,4.5602,4.5644,4.5735,4.5787,4.5832,4.5922,4.5957,4.6034,4.6118,4.6205,4.626,4.6345,4.6448,4.6476,4.6489,4.6491,4.6493,4.6502,4.6563,4.6571,4.6486,4.6486,4.6485,0,0,4.5319,4.5406,4.5453,4.5593,4.5664,4.5748,4.5764,4.5852,4.5915,4.5969,4.6075,4.6134,4.6233,4.6338,4.6387,4.6387,4.6531,4.6499,4.6499,4.6507,4.6568,4.6576,4.6583,4.6488,4.6488,4.6487,0,0,4.5366,4.5439,4.552,4.5591,4.5699,4.5759,4.5778,4.5894,4.5937,4.6044,4.6087,4.6162,4.6309,4.6379,4.6434,4.6509,4.6538,4.6534,4.6549,4.6608,4.6615,4.6621,4.6651,4.666,4.6541,4.6541,4.6541,0,4.5354,4.5485,4.5556,4.5643,4.5704,4.576,4.5842,4.5906,4.6035,4.6075,4.6073,4.6261,4.6331,4.6455,4.6474,4.6515,4.654,4.6522,4.6608,4.6615,4.6622,4.6652,4.6662,4.654,4.654,4.654,4.654,0,4.5467,4.5556,4.5608,4.5735,4.5801,4.5884,4.5968,4.6026,4.6064,4.6125,4.6234,4.632,4.6426,4.6457,4.6494,4.6587,4.6584,4.6593,4.6589,4.6629,4.6658,4.6669,4.6539,4.6539,4.654,4.654,0,0,4.5486,4.5653,4.5671,4.5731,4.5854,4.5924,4.601,4.6116,4.6166,4.6252,4.6327,4.6451,4.6462,4.6524,4.6569,4.662,4.6678,4.6624,4.6628,4.6634,4.6788,4.6783,4.6795,4.6696,4.6699,4.6701,4.6781,0,4.5551,4.5711,4.5778,4.5906,4.5991,4.6045,4.612,4.6204,4.6262,4.6341,4.6404,4.6493,4.6499,4.6538,4.659,4.666,4.671,4.6654,4.6767,4.6771,4.6745,4.6809,4.6803,4.6875,4.6792,4.6794,4.6796,0,4.565,4.5741,4.5879,4.5995,4.6033,4.61,4.6204,4.6279,4.6374,4.6413,4.6483,4.6526,4.6618,4.6605,4.6733,4.6693,4.6743,4.6783,4.6788,4.6804,4.6788,4.683,4.69,4.6912,4.6814,4.6812,4.6811,0,4.5655,4.5811,4.5915,4.5964,4.61,4.6147,4.6205,4.63,4.636,4.6449,4.6489,4.6586,4.664,4.6714,4.6782,4.6766,4.6904,4.6896,4.694,4.6939,4.697,4.6967,4.7052,4.6995,4.6995,4.6995,4.6995,0,4.5723,4.5806,4.592,4.5984,4.6078,4.6153,4.6244,4.6306,4.639,4.6466,4.6516,4.6586,4.6671,4.6751,4.6804,4.6903,4.6926,4.696,4.6974,4.6958,4.6954,4.6994,4.6992,4.6998,4.6997,4.6997,4.6996,0,4.5746,4.5825,4.5942,4.6063,4.6095,4.616,4.6263,4.6327,4.6388,4.6484,4.651,4.6606,4.6703,4.6778,4.6903,4.6939,4.7045,4.7058,4.7015,4.7023,4.7064,4.706,4.718,4.72,4.7126,4.7126,4.7127,0,4.5786,4.5852,4.5981,4.6038,4.6097,4.6186,4.6249,4.6325,4.6388,4.6503,4.6553,4.6654,4.6741,4.6893,4.6973,4.7069,4.7087,4.7122,4.7102,4.7085,4.7092,4.7089,4.7097,4.7125,4.7126,4.7126,4.7126,0,4.5851,4.5887,4.5977,4.6082,4.6156,4.6241,4.6327,4.6369,4.646,4.6528,4.6631,4.6697,4.6828,4.6928,4.7034,4.7092,4.7125,4.7132,4.7148,4.7134,4.7108,4.7127,4.7026,4.713,4.7129,4.7129,4.7129,4.7129,4.5886,4.5949,4.6051,4.615,4.6223,4.6302,4.6369,4.644,4.6528,4.6642,4.668,4.6786,4.6881,4.7026,4.7085,4.7169,4.7169,4.7191,4.7198,4.7203,4.7204,4.7092,4.7187,4.7187,4.7187,4.7187,4.7187,0,4.5957,4.6026,4.6116,4.6237,4.6314,4.634,4.6437,4.65,4.6594,4.668,4.6765,4.6883,4.6981,4.7069,4.7171,4.7221,4.7239,4.7245,4.7244,4.7258,4.7195,4.7173,4.7229,4.7229,4.7229,4.7229,4.7229,4.7229,4.6003,4.6112,4.616,4.6305,4.6372,4.648,4.6533,4.6606,4.6677,4.6808,4.6891,4.6948,4.7035,4.7144,4.7236,4.7259,4.7295,4.7299,4.7326,4.7267,4.7262,4.7257,4.7237,4.7305,4.7305,4.7382,4.7383,4.7383]}]]